GW6301 Weather Reports


Display with metric or nautical units.
time (UTC)temp
F
wind
direction
speed
MPH
gust
MPH
rain 1hr
in
rain 24hr
in
rain mn
in
humidity
%
barometer
mb
20260504185251 71 317 3.0 7.0 0.00 0.00 0.00 40 1006.4
20260504184751 71 324 3.0 8.0 0.00 0.00 0.00 41 1006.4
20260504184251 72 326 4.0 7.0 0.00 0.00 0.00 39 1006.4
20260504183752 73 340 4.0 10.0 0.00 0.00 0.00 39 1006.4
20260504183252 71 216 5.0 11.0 0.00 0.00 0.00 40 1006.4
20260504182751 71 249 4.0 10.0 0.00 0.00 0.00 41 1006.4
20260504182252 70 196 6.0 10.0 0.00 0.00 0.00 40 1006.4
20260504181751 72 197 6.0 14.0 0.00 0.00 0.00 40 1006.4
20260504181252 73 265 6.0 13.0 0.00 0.00 0.00 40 1006.4
20260504180752 73 207 4.0 9.0 0.00 0.00 0.00 40 1006.8
20260504180251 72 184 6.0 12.0 0.00 0.00 0.00 39 1006.8
20260504175751 72 6 4.0 10.0 0.00 0.00 0.00 41 1006.8
20260504175252 70 195 6.0 11.0 0.00 0.00 0.00 41 1006.8
20260504174751 70 198 6.0 14.0 0.00 0.00 0.00 42 1006.8
20260504174251 71 244 5.0 11.0 0.00 0.00 0.00 41 1006.8
20260504173752 71 211 7.0 13.0 0.00 0.00 0.00 42 1006.8
20260504173251 71 194 5.0 13.0 0.00 0.00 0.00 42 1006.8
20260504172752 70 248 5.0 11.0 0.00 0.00 0.00 42 1006.8
20260504172251 68 252 5.0 7.0 0.00 0.00 0.00 44 1006.8
20260504171752 68 323 5.0 13.0 0.00 0.00 0.00 45 1006.8
20260504171251 68 290 7.0 15.0 0.00 0.00 0.00 45 1006.8
20260504170752 68 198 6.0 17.0 0.00 0.00 0.00 44 1006.8
20260504170251 69 17 5.0 10.0 0.00 0.00 0.00 44 1006.8
20260504160252 64 246 7.0 12.0 0.00 0.00 0.00 48 1007.5
20260504150755 63 246 7.0 15.0 0.00 0.00 0.00 48 1007.8
20260504150251 62 221 8.0 13.0 0.00 0.00 0.00 49 1008.1
20260504141253 59 241 6.0 16.0 0.00 0.00 0.00 51 1008.1
20260504140754 59 187 4.0 9.0 0.00 0.00 0.00 51 1008.5
20260504140254 57 180 7.0 13.0 0.00 0.00 0.00 52 1008.5
20260504130751 53 177 4.0 11.0 0.00 0.00 0.00 58 1008.8
20260504130251 52 229 5.0 13.0 0.00 0.00 0.00 59 1008.8
20260504120252 48 242 3.0 7.0 0.00 0.00 0.00 64 1009.1
20260504110253 43 183 2.0 6.0 0.00 0.00 0.00 76 1008.8
20260504100253 39 64 0.0 0.0 0.00 0.00 0.00 83 1008.8
20260504081751 41 58 0.0 0.0 0.00 0.00 0.00 78 1009.1
20260504081252 42 91 0.0 1.0 0.00 0.00 0.00 77 1009.1
20260504080752 42 97 0.0 1.0 0.00 0.00 0.00 77 1009.1
20260504080251 42 136 0.0 1.0 0.00 0.00 0.00 77 1009.1
20260504070252 41 149 0.0 1.0 0.00 0.00 0.00 77 1009.1
20260504050752 43 50 0.0 1.0 0.00 0.00 0.00 77 1009.5
20260504050251 43 14 0.0 0.0 0.00 0.00 0.00 77 1009.5
20260504045752 44 26 0.0 1.0 0.00 0.00 0.00 77 1009.5
20260504045252 44 32 0.0 0.0 0.00 0.00 0.00 76 1009.5
20260504044751 44 350 0.0 0.0 0.00 0.00 0.00 75 1009.5
20260504044251 45 343 0.0 0.0 0.00 0.00 0.00 74 1009.5
20260504043751 46 13 0.0 1.0 0.00 0.00 0.00 74 1009.5
20260504043252 46 332 0.0 1.0 0.00 0.00 0.00 74 1009.5
20260504042751 46 28 0.0 1.0 0.00 0.00 0.00 74 1009.5
20260504042251 47 26 0.0 0.0 0.00 0.00 0.00 73 1009.5
20260504041751 47 24 0.0 0.0 0.00 0.00 0.00 74 1009.5
20260504041252 47 336 0.0 1.0 0.00 0.00 0.00 71 1009.5
20260504040751 47 8 0.0 0.0 0.00 0.00 0.00 70 1009.5
20260504040251 48 337 0.0 0.0 0.00 0.00 0.00 72 1009.5
20260504035751 48 64 0.0 0.0 0.00 0.00 0.00 71 1009.5
20260504035251 48 29 0.0 0.0 0.00 0.00 0.00 71 1009.5
20260504034751 48 27 0.0 0.0 0.00 0.00 0.00 72 1009.5
20260504034251 48 15 0.0 0.0 0.00 0.00 0.00 71 1009.5
20260504033751 48 5 0.0 0.0 0.00 0.00 0.00 69 1009.5
20260504033251 49 5 0.0 0.0 0.00 0.00 0.00 69 1009.5
20260504032751 49 8 0.0 0.0 0.00 0.00 0.00 69 1009.5
20260504032251 49 348 0.0 0.0 0.00 0.00 0.00 68 1009.5
20260504031751 49 46 0.0 0.0 0.00 0.00 0.00 67 1009.8
20260504031251 50 1 0.0 0.0 0.00 0.00 0.00 68 1009.8
20260504030751 50 11 0.0 0.0 0.00 0.00 0.00 65 1009.8
20260504030252 50 67 0.0 1.0 0.00 0.00 0.00 62 1009.8
20260504025751 50 136 0.0 2.0 0.00 0.00 0.00 60 1009.8
20260504025251 50 95 0.0 1.0 0.00 0.00 0.00 60 1009.5
20260504024751 50 162 0.0 1.0 0.00 0.00 0.00 59 1009.8
20260504024252 50 358 0.0 2.0 0.00 0.00 0.00 58 1009.8
20260504023752 50 118 0.0 2.0 0.00 0.00 0.00 60 1009.8
20260504023252 50 343 0.0 1.0 0.00 0.00 0.00 59 1009.8
20260504022751 50 329 1.0 3.0 0.00 0.00 0.00 58 1009.8
20260504022251 51 320 1.0 4.0 0.00 0.00 0.00 58 1009.8
20260504021752 50 218 3.0 6.0 0.00 0.00 0.00 60 1009.8
20260504021251 50 252 3.0 8.0 0.00 0.00 0.00 59 1009.8
20260504020751 50 241 2.0 8.0 0.00 0.00 0.00 60 1009.8
20260504020251 50 233 3.0 10.0 0.00 0.00 0.00 60 1009.8
20260504015751 50 307 4.0 10.0 0.00 0.00 0.00 60 1009.8
20260504015252 50 229 3.0 12.0 0.00 0.00 0.00 60 1010.2
20260504014751 50 186 7.0 13.0 0.00 0.00 0.00 62 1010.2
20260504014251 50 227 6.0 10.0 0.00 0.00 0.00 60 1010.2
20260504013751 51 210 7.0 17.0 0.00 0.00 0.00 58 1010.2
20260504013251 51 203 7.0 20.0 0.00 0.00 0.00 55 1009.8
20260504012751 51 330 3.0 8.0 0.00 0.00 0.00 55 1009.5
20260504012251 51 265 3.0 7.0 0.00 0.00 0.00 55 1009.8
20260504011752 51 233 2.0 5.0 0.00 0.00 0.00 56 1009.8
20260504011251 51 336 2.0 6.0 0.00 0.00 0.00 58 1009.8
20260504010752 51 205 6.0 15.0 0.00 0.00 0.00 57 1009.8
20260504010252 51 188 5.0 13.0 0.00 0.00 0.00 56 1009.8
20260504005751 51 285 2.0 4.0 0.00 0.00 0.00 56 1009.5
20260504005251 51 101 4.0 10.0 0.00 0.00 0.00 57 1009.8
20260504004751 51 308 2.0 6.0 0.00 0.00 0.00 55 1009.8
20260504004251 51 227 1.0 7.0 0.00 0.00 0.00 57 1009.8
20260504003752 51 212 1.0 4.0 0.00 0.00 0.00 55 1009.5
20260504003251 52 241 1.0 3.0 0.00 0.00 0.00 55 1009.5
20260504002751 51 234 3.0 9.0 0.00 0.00 0.00 55 1009.5
20260504002251 52 268 3.0 8.0 0.00 0.00 0.00 55 1009.5
20260504001751 52 243 2.0 5.0 0.00 0.00 0.00 55 1009.8
20260504001252 52 345 3.0 8.0 0.00 0.00 0.00 54 1009.5
20260504000751 52 319 3.0 8.0 0.00 0.00 0.00 53 1009.5
20260504000252 52 200 2.0 7.0 0.00 0.00 0.00 52 1009.5
20260503235751 52 279 2.0 7.0 0.00 0.00 0.00 52 1009.5
20260503235251 52 56 0.0 3.0 0.00 0.00 0.00 53 1009.1
20260503234752 52 137 0.0 3.0 0.00 0.00 0.00 52 1009.1
20260503234251 52 124 0.0 1.0 0.00 0.00 0.00 53 1009.1
20260503233751 52 333 0.0 1.0 0.00 0.00 0.00 52 1008.8
20260503233251 52 312 1.0 7.0 0.00 0.00 0.00 50 1008.8
20260503232751 53 251 0.0 2.0 0.00 0.00 0.00 50 1008.8
20260503232252 53 303 0.0 1.0 0.00 0.00 0.00 51 1008.8
20260503231751 53 255 0.0 2.0 0.00 0.00 0.00 50 1008.8
20260503231251 53 340 0.0 2.0 0.00 0.00 0.00 50 1008.8
20260503230751 53 221 2.0 6.0 0.00 0.00 0.00 49 1008.8
20260503230252 53 205 1.0 5.0 0.00 0.00 0.00 49 1008.8
20260503225751 53 230 2.0 4.0 0.00 0.00 0.00 48 1008.8
20260503225252 53 236 1.0 3.0 0.00 0.00 0.00 49 1008.8
20260503224751 53 320 0.0 3.0 0.00 0.00 0.00 49 1008.8
20260503224251 53 314 1.0 3.0 0.00 0.00 0.00 50 1008.8
20260503223751 53 359 0.0 3.0 0.00 0.00 0.00 50 1008.8
20260503223251 53 264 2.0 9.0 0.00 0.00 0.00 48 1008.8
20260503222751 53 268 2.0 4.0 0.00 0.00 0.00 48 1008.8
20260503222251 53 207 2.0 6.0 0.00 0.00 0.00 49 1008.8
20260503221751 53 286 4.0 10.0 0.00 0.00 0.00 48 1008.8
20260503221252 53 325 3.0 9.0 0.00 0.00 0.00 48 1008.8
20260503220752 53 216 4.0 7.0 0.00 0.00 0.00 47 1008.8
20260503220251 54 111 2.0 4.0 0.00 0.00 0.00 50 1009.1
20260503215751 54 336 3.0 6.0 0.00 0.00 0.00 47 1008.8
20260503215251 54 155 4.0 10.0 0.00 0.00 0.00 47 1009.1
20260503214751 54 243 3.0 7.0 0.00 0.00 0.00 48 1008.8
20260503214251 54 343 3.0 7.0 0.00 0.00 0.00 48 1009.1
20260503213752 54 271 3.0 7.0 0.00 0.00 0.00 48 1009.1
20260503213251 54 69 4.0 11.0 0.00 0.00 0.00 48 1009.1
20260503212752 54 194 5.0 11.0 0.00 0.00 0.00 47 1009.1
20260503212252 55 272 4.0 7.0 0.00 0.00 0.00 46 1009.1
20260503211751 55 271 3.0 8.0 0.00 0.00 0.00 49 1009.1
20260503211253 54 232 5.0 11.0 0.00 0.00 0.00 47 1009.1
20260503210751 54 118 4.0 10.0 0.00 0.00 0.00 48 1009.1
20260503210251 54 304 3.0 8.0 0.00 0.00 0.00 47 1009.1
20260503205751 53 90 3.0 12.0 0.00 0.00 0.00 49 1009.1
20260503205251 53 253 4.0 13.0 0.00 0.00 0.00 49 1009.1
20260503204751 53 123 4.0 9.0 0.00 0.00 0.00 48 1009.1
20260503204252 54 284 3.0 9.0 0.00 0.00 0.00 48 1009.1
20260503203751 54 226 2.0 8.0 0.00 0.00 0.00 49 1009.1
20260503203251 53 277 2.0 6.0 0.00 0.00 0.00 47 1009.1
20260503202751 53 246 4.0 10.0 0.00 0.00 0.00 48 1009.1
20260503202252 54 295 3.0 4.0 0.00 0.00 0.00 47 1009.1
20260503201752 54 354 1.0 1.0 0.00 0.00 0.00 47 1009.1
20260503201251 55 354 4.0 9.0 0.00 0.00 0.00 47 1009.1
20260503200751 54 38 4.0 8.0 0.00 0.00 0.00 46 1009.5
20260503200251 53 243 4.0 7.0 0.00 0.00 0.00 47 1009.5
20260503195752 53 1 4.0 10.0 0.00 0.00 0.00 46 1009.5
20260503195251 53 320 4.0 7.0 0.00 0.00 0.00 48 1009.5
20260503194751 52 265 5.0 11.0 0.00 0.00 0.00 47 1009.8
20260503194251 53 163 4.0 7.0 0.00 0.00 0.00 45 1009.5
20260503193751 53 75 5.0 10.0 0.00 0.00 0.00 45 1009.8
20260503193251 54 248 3.0 9.0 0.00 0.00 0.00 45 1009.5
20260503192752 53 334 5.0 14.0 0.00 0.00 0.00 45 1009.5
20260503192252 54 301 3.0 6.0 0.00 0.00 0.00 44 1009.8
20260503191751 55 328 3.0 8.0 0.00 0.00 0.00 42 1009.8
20260503191251 56 300 3.0 6.0 0.00 0.00 0.00 41 1009.8
20260503190753 55 336 3.0 8.0 0.00 0.00 0.00 42 1009.8
20260503190251 54 354 4.0 8.0 0.00 0.00 0.00 44 1009.8
20260503185751 54 317 4.0 10.0 0.00 0.00 0.00 43 1009.8